Total_Precipitation_Accumulation
0.29 0.44 1.02 1.25 1.32 1.34 1.33 1.27 1.14 1.07 1.07 1.22 1.31 1.29 1.20 1.13 1.14 1.15 1.16 1.21 1.35 1.60 1.80 1.87 1.78 1.73 1.56 1.44 1.27 1.01 0.89 0.78 0.73 0.67 0.66 0.75 0.85 0.85 0.70 0.66 0.66 0.67 0.96
0.28 0.40 0.94 1.30 1.41 1.42 1.43 1.34 1.13 1.00 1.03 1.15 1.34 1.40 1.35 1.22 1.18 1.24 1.30 1.32 1.57 1.74 1.80 1.87 1.71 1.61 1.45 1.25 1.02 0.79 0.66 0.52 0.45 0.38 0.35 0.49 0.69 0.81 0.70 0.65 0.66 0.83 0.90
0.32 0.45 0.84 1.30 1.51 1.54 1.53 1.41 1.20 1.04 1.07 1.08 1.25 1.41 1.46 1.39 1.36 1.37 1.43 1.51 1.63 1.65 1.66 1.72 1.67 1.50 1.23 1.01 0.85 0.68 0.55 0.43 0.37 0.31 0.33 0.45 0.64 0.90 0.87 0.78 0.79 0.95 0.91
0.38 0.53 0.84 1.33 1.58 1.63 1.53 1.43 1.32 1.19 1.11 1.09 1.16 1.33 1.46 1.51 1.54 1.52 1.54 1.66 1.61 1.51 1.51 1.49 1.39 1.25 1.06 0.88 0.76 0.67 0.54 0.43 0.36 0.31 0.39 0.49 0.62 1.13 1.22 1.07 1.01 1.00 0.91
0.48 0.65 1.03 1.53 1.72 1.73 1.62 1.53 1.45 1.31 1.18 1.17 1.20 1.20 1.31 1.44 1.58 1.72 1.73 1.72 1.62 1.44 1.39 1.36 1.20 1.10 1.02 0.94 0.80 0.67 0.56 0.43 0.31 0.32 0.43 0.55 0.80 1.44 1.32 1.17 1.09 1.04 0.92
0.67 0.89 1.22 1.64 1.78 1.77 1.71 1.67 1.62 1.45 1.33 1.39 1.38 1.32 1.29 1.34 1.48 1.67 1.72 1.66 1.58 1.45 1.37 1.28 1.16 1.06 1.00 0.91 0.83 0.70 0.57 0.41 0.31 0.32 0.42 0.53 0.78 1.37 1.26 1.08 1.04 1.04 0.98
0.90 1.12 1.38 1.70 1.85 1.82 1.78 1.78 1.74 1.72 1.68 1.65 1.61 1.47 1.39 1.35 1.38 1.45 1.48 1.43 1.50 1.45 1.35 1.31 1.20 1.11 1.01 0.90 0.85 0.71 0.57 0.38 0.31 0.35 0.40 0.54 0.90 1.35 1.31 1.16 1.14 1.13 1.11
1.19 1.37 1.58 1.90 2.03 1.96 1.85 1.82 1.86 1.95 1.97 1.89 1.80 1.64 1.47 1.44 1.39 1.32 1.29 1.27 1.39 1.42 1.38 1.32 1.20 1.09 1.01 0.92 0.85 0.76 0.56 0.35 0.31 0.31 0.36 0.58 1.00 1.32 1.32 1.16 1.13 1.16 1.16
1.60 1.76 1.98 2.08 2.03 2.08 2.02 1.96 1.93 1.99 2.01 1.96 1.81 1.72 1.57 1.49 1.41 1.28 1.20 1.26 1.32 1.36 1.34 1.26 1.20 1.07 0.97 0.88 0.74 0.64 0.48 0.36 0.31 0.32 0.36 0.60 1.00 1.38 1.35 1.17 1.08 1.07 1.10
2.13 2.24 2.39 2.45 2.29 2.19 2.10 2.06 1.96 1.91 2.00 2.04 1.89 1.62 1.43 1.40 1.43 1.32 1.12 1.22 1.33 1.32 1.32 1.21 1.17 1.11 0.92 0.78 0.66 0.58 0.44 0.35 0.32 0.34 0.44 0.64 0.95 1.29 1.33 1.18 1.14 1.13 1.13
2.64 2.68 2.70 2.77 2.71 2.58 2.43 2.17 2.13 2.04 2.06 2.00 1.85 1.64 1.51 1.49 1.38 1.24 1.00 1.00 1.20 1.27 1.28 1.22 1.11 1.05 0.88 0.72 0.63 0.53 0.42 0.35 0.38 0.43 0.50 0.76 1.03 1.18 1.28 1.20 1.16 1.15 1.16
2.78 2.93 2.96 3.00 2.99 2.90 2.73 2.56 2.39 2.19 2.14 1.98 1.71 1.59 1.59 1.53 1.43 1.22 1.09 1.00 1.12 1.19 1.25 1.26 1.15 1.01 0.87 0.70 0.67 0.59 0.47 0.42 0.45 0.46 0.56 0.81 1.07 1.16 1.18 1.15 1.15 1.12 1.11
3.02 3.27 3.35 3.38 3.43 3.46 3.20 2.88 2.70 2.41 2.17 2.14 1.87 1.70 1.64 1.70 1.68 1.56 1.32 1.21 1.21 1.15 1.14 1.19 1.13 0.93 0.76 0.65 0.61 0.54 0.52 0.50 0.49 0.51 0.62 0.73 0.97 1.15 1.14 1.14 1.15 1.17 1.22
3.23 3.51 3.84 3.88 3.84 3.87 3.60 3.24 2.91 2.65 2.34 2.19 2.11 1.95 1.82 1.75 1.68 1.59 1.39 1.20 1.14 1.05 1.03 1.13 1.11 0.95 0.84 0.68 0.63 0.61 0.60 0.58 0.54 0.56 0.62 0.68 0.81 1.09 1.24 1.32 1.28 1.22 1.33
3.14 3.52 3.98 4.07 3.98 3.92 3.71 3.38 3.02 2.83 2.57 2.36 2.39 2.30 2.06 1.88 1.79 1.72 1.62 1.40 1.25 1.12 1.01 1.04 1.17 1.10 1.04 0.95 0.79 0.69 0.67 0.65 0.60 0.57 0.58 0.63 0.70 0.94 1.20 1.35 1.37 1.43 1.47
3.18 3.41 3.86 4.06 3.97 3.96 3.78 3.40 3.04 2.79 2.66 2.55 2.36 2.26 2.24 2.06 1.95 1.91 1.78 1.55 1.36 1.22 1.09 1.02 1.09 1.18 1.15 1.11 1.02 0.89 0.82 0.75 0.67 0.62 0.56 0.59 0.65 0.76 1.01 1.20 1.32 1.48 1.68
3.19 3.47 3.69 4.00 4.16 3.98 3.90 3.52 3.13 2.98 2.76 2.57 2.42 2.25 2.24 2.19 2.07 2.09 1.95 1.68 1.51 1.45 1.32 1.24 1.25 1.27 1.21 1.09 1.01 1.00 0.95 0.85 0.76 0.70 0.63 0.59 0.60 0.66 0.84 1.09 1.23 1.41 1.62
3.21 3.50 3.64 3.83 4.03 4.00 3.97 3.80 3.27 3.01 2.92 2.72 2.58 2.43 2.31 2.26 2.22 2.27 2.14 1.87 1.82 1.86 1.71 1.52 1.45 1.38 1.25 1.15 1.06 1.05 1.01 0.96 0.81 0.74 0.70 0.65 0.62 0.64 0.79 1.03 1.17 1.27 1.43
3.10 3.45 3.68 3.80 3.90 4.10 4.11 4.04 3.83 3.43 3.03 2.96 2.90 2.62 2.37 2.29 2.27 2.27 2.24 2.11 2.10 2.11 2.03 1.83 1.71 1.65 1.46 1.32 1.24 1.22 1.21 1.17 1.07 0.92 0.81 0.81 0.77 0.76 0.90 1.12 1.21 1.21 1.23
3.07 3.43 3.72 3.80 3.81 4.12 4.43 4.38 4.18 3.95 3.38 3.00 2.92 2.77 2.55 2.37 2.27 2.24 2.19 2.25 2.30 2.27 2.22 2.14 1.96 1.87 1.77 1.65 1.56 1.44 1.43 1.40 1.27 1.08 0.95 0.92 0.91 0.91 1.02 1.09 1.12 1.20 1.21
2.97 3.29 3.57 3.71 3.72 3.83 4.12 4.20 3.98 3.76 3.59 3.20 2.90 2.85 2.77 2.62 2.56 2.44 2.24 2.27 2.38 2.27 2.16 2.25 2.29 2.25 2.14 1.99 1.92 1.75 1.64 1.53 1.41 1.18 1.01 0.97 0.98 1.01 1.04 1.08 1.10 1.01 0.91
2.64 3.05 3.35 3.57 3.77 3.70 3.62 3.82 3.87 3.80 3.66 3.45 3.17 3.07 2.89 2.73 2.64 2.63 2.57 2.46 2.53 2.49 2.38 2.31 2.35 2.42 2.32 2.26 2.22 2.14 1.95 1.82 1.53 1.27 1.12 1.03 1.01 1.05 1.07 1.06 1.02 0.99 0.87
2.32 2.66 2.99 3.28 3.57 3.78 3.77 3.97 4.09 4.08 3.84 3.56 3.24 3.02 2.88 2.80 2.74 2.64 2.65 2.64 2.62 2.65 2.55 2.45 2.38 2.39 2.40 2.32 2.26 2.39 2.13 1.79 1.54 1.38 1.19 1.10 1.07 1.08 1.11 1.12 1.07 1.01 0.95
2.04 2.31 2.59 2.99 3.34 3.64 3.82 3.83 3.86 3.94 3.71 3.31 3.15 3.19 3.05 2.82 2.72 2.71 2.65 2.63 2.66 2.63 2.57 2.60 2.60 2.46 2.46 2.45 2.36 2.19 1.98 1.72 1.63 1.52 1.36 1.27 1.18 1.12 1.13 1.16 1.12 1.05 1.01
1.80 2.10 2.29 2.60 2.96 3.24 3.32 3.38 3.54 3.66 3.67 3.47 3.33 3.27 3.19 2.92 2.66 2.58 2.59 2.56 2.55 2.57 2.57 2.60 2.64 2.66 2.57 2.47 2.38 2.28 2.15 1.89 1.70 1.66 1.54 1.45 1.45 1.31 1.22 1.19 1.18 1.16 1.11
1.50 1.81 2.08 2.22 2.48 2.74 2.88 2.98 3.13 3.17 3.32 3.36 3.26 3.25 3.25 3.05 2.75 2.57 2.50 2.45 2.43 2.46 2.47 2.52 2.60 2.68 2.63 2.48 2.35 2.19 2.13 2.01 1.83 1.79 1.64 1.47 1.51 1.44 1.36 1.29 1.24 1.24 1.27